KB1JDX Weather Reports


time (UTC)temp
C
wind
direction
speed
KPH
gust
KPH
rain 1hr
cm
rain 24hr
cm
rain mn
cm
humidity
%
barometer
mb
20260904125205 21 209 0.0 0.0 0.00 0.00 0.00 100 1010.2
20260904123103 21 209 0.0 0.0 0.00 0.00 0.00 100 1010.2
20260904113206 20 209 0.0 0.0 0.00 0.00 0.00 100 1010.0
20260904113103 20 209 0.0 0.0 0.00 0.00 0.00 100 1009.9
20260904111205 20 209 0.0 0.0 0.00 0.00 0.00 100 1009.7
20260904105206 20 209 0.0 0.0 0.00 0.00 0.00 100 1009.8
20260904103103 20 209 0.0 0.0 0.00 0.00 0.00 100 1009.8
20260904101205 20 209 0.0 0.0 0.00 0.00 0.00 100 1009.5
20260904093205 20 209 0.0 0.0 0.00 0.00 0.00 100 1009.4
20260904093102 20 209 0.0 0.0 0.00 0.00 0.00 100 1009.5
20260904083205 20 209 0.0 0.0 0.00 0.00 0.00 100 1009.3
20260904083102 20 209 0.0 0.0 0.00 0.00 0.00 100 1009.3
20260904081205 20 209 0.0 0.0 0.00 0.00 0.00 100 1009.4
20260904075205 20 209 0.0 0.0 0.00 0.00 0.00 100 1009.4
20260904073205 20 209 0.0 0.0 0.00 0.00 0.00 100 1009.5
20260904073102 20 209 0.0 0.0 0.00 0.00 0.00 100 1009.5
20260904071205 20 209 0.0 0.0 0.00 0.00 0.00 100 1010.0
20260904065205 20 209 0.0 0.0 0.00 0.00 0.00 100 1010.1
20260904063205 20 209 0.0 0.0 0.00 0.00 0.00 100 1010.4
20260904063102 20 209 0.0 0.0 0.00 0.00 0.00 100 1010.4
20260904061205 20 209 0.0 0.0 0.00 0.00 0.00 100 1010.3
20260904053206 20 209 0.0 0.0 0.00 0.00 0.00 100 1010.8
20260904053102 20 209 0.0 0.0 0.00 0.00 0.00 100 1010.8
20260904051205 21 209 0.0 0.0 0.00 0.00 0.00 100 1010.8
20260904045205 21 209 0.0 0.0 0.00 0.00 0.00 100 1011.2
20260904043205 21 209 0.0 0.0 0.00 0.00 0.00 100 1011.1
20260904043102 21 209 0.0 0.0 0.00 0.00 0.00 100 1011.1
20260904033206 21 209 0.0 0.0 0.00 0.00 0.00 100 1011.5
20260904033103 21 209 0.0 0.0 0.00 0.00 0.00 100 1011.5
20260904031205 21 209 0.0 0.0 0.00 0.00 0.00 100 1011.5
20260904025205 22 209 0.0 0.0 0.00 0.00 0.00 100 1011.6
20260904023206 22 209 0.0 0.0 0.00 0.00 0.00 100 1011.7
20260904023103 22 209 0.0 0.0 0.00 0.00 0.00 100 1011.8
20260904021205 22 209 0.0 0.0 0.00 0.00 0.00 100 1012.1
20260904015205 22 209 0.0 0.0 0.00 0.00 0.00 100 1012.1
20260904013205 22 209 0.0 0.0 0.00 0.00 0.00 100 1012.1
20260904013102 22 209 0.0 0.0 0.00 0.00 0.00 100 1012.1
20260904011205 22 209 0.0 0.0 0.00 0.00 0.00 100 1012.2
20260904005205 23 209 0.0 0.0 0.00 0.00 0.00 100 1012.0
20260904003205 23 209 0.0 0.0 0.00 0.00 0.00 100 1011.9
20260904003102 23 209 0.0 0.0 0.00 0.00 0.00 100 1011.9
20260904001205 23 209 0.0 0.0 0.00 0.00 0.00 100 1011.6
20260903235206 23 209 0.0 0.0 0.00 0.00 0.00 100 1011.5
20260903233102 24 209 0.0 0.0 0.00 0.00 0.00 100 1011.4
20260903231205 25 209 0.0 0.0 0.00 0.00 0.00 100 1011.3
20260903225205 25 209 0.0 1.6 0.00 0.00 0.00 100 1011.0
20260903223205 26 209 0.0 1.6 0.00 0.00 0.00 100 1011.1
20260903223103 26 209 0.0 1.6 0.00 0.00 0.00 100 1011.2
20260903221205 26 209 0.0 1.6 0.00 0.00 0.00 3 1011.2
20260903215205 26 209 0.0 8.0 0.00 0.00 0.00 10 1011.4
20260903213205 27 209 0.0 8.0 0.00 0.00 0.00 21 1011.3
20260903213102 27 209 0.0 8.0 0.00 0.00 0.00 21 1011.2
20260903211205 27 209 0.0 8.0 0.00 0.00 0.00 21 1011.3
20260903205207 27 209 0.0 0.0 0.00 0.00 0.00 18 1011.3
20260903203205 27 208 0.0 0.0 0.00 0.00 0.00 19 1011.3
20260903203102 27 209 0.0 0.0 0.00 0.00 0.00 18 1011.3
20260903201205 27 209 0.0 0.0 0.00 0.00 0.00 13 1011.3
20260903195206 26 209 0.0 0.0 0.00 0.00 0.00 6 1011.6
20260903193205 25 209 0.0 0.0 0.00 0.00 0.00 100 1012.0
20260903193102 25 209 0.0 0.0 0.00 0.00 0.00 100 1012.0
20260903191205 26 210 0.0 0.0 0.00 0.00 0.00 4 1012.1
20260903185205 26 210 0.0 0.0 0.00 0.00 0.00 2 1012.3
20260903183205 26 210 0.0 0.0 0.00 0.00 0.00 8 1012.3
20260903183102 26 210 0.0 0.0 0.00 0.00 0.00 7 1012.3
20260903181205 26 210 0.0 0.0 0.00 0.00 0.00 100 1012.6
20260903175205 26 209 0.0 16.1 0.00 0.00 0.00 100 1012.7
20260903173206 25 213 0.0 16.1 0.00 0.00 0.00 100 1012.5
20260903173103 25 213 0.0 16.1 0.00 0.00 0.00 100 1012.6
20260903171205 25 214 0.0 16.1 0.00 0.00 0.00 100 1012.8
20260903165205 24 213 6.4 12.9 0.00 0.00 0.00 100 1013.1
20260903163102 23 215 0.0 12.9 0.00 0.00 0.00 100 1013.0
20260903161205 23 205 0.0 12.9 0.00 0.00 0.00 100 1013.0
20260903155205 22 229 0.0 11.3 0.00 0.00 0.00 100 1013.2
20260903153205 22 218 0.0 11.3 0.00 0.00 0.00 100 1013.2
20260903153102 22 218 0.0 11.3 0.00 0.00 0.00 100 1013.2
20260903151205 21 218 0.0 11.3 0.00 0.00 0.00 100 1013.3
20260903145205 21 188 0.0 0.0 0.00 0.00 0.00 100 1013.4
20260903143102 20 184 0.0 0.0 0.00 0.00 0.00 100 1013.5
20260903141206 20 184 0.0 0.0 0.00 0.00 0.00 100 1014.1
20260903135205 20 184 0.0 0.0 0.00 0.00 0.00 100 1014.3
20260903133102 19 184 0.0 0.0 0.00 0.00 0.00 100 1014.5
20260903131205 18 184 0.0 0.0 0.00 0.00 0.00 100 1014.7